Regional Weather Roundup
Issued by NWS Kansas City/Pleasant Hill, MO

Home | Current Version | Previous Version | Graphics & Text | Print | Product List | Glossary Off
Versions: 1 2 3 4 5 6 7 8 9 10 11 12 13 14 15 16 17 18 19 20 21 22 23 24 25 26 27 28 29 30 31 32 33 34 35 36 37 38 39 40 41 42 43 44 45 46 47 48 49 50

787
ASUS43 KEAX 261210
RWREAX

WEATHER ROUNDUP FOR EASTERN KANSAS AND NORTHWEST MISSOURI
NATIONAL WEATHER SERVICE KANSAS CITY/PLEASANT HILL MO
700 AM CDT MON JUN 26 2017

KSZ040-057-103>105-MOZ028-029-037-043-261300-
...KANSAS CITY METROPOLITAN AREA...

CITY           SKY/WX    TMP DP  RH WIND       PRES   REMARKS
K.C. INTL      MOSUNNY   59  57  93 S5        30.19F
6HR MIN TEMP:  48; 6HR MAX TEMP:  59;

K.C. DOWNTOWN  SUNNY     58  55  90 SW3       30.18F
6HR MIN TEMP:  54; 6HR MAX TEMP:  60;

LEES SUMMIT    SUNNY     56  53  90 S5        30.19F
6HR MIN TEMP:  53; 6HR MAX TEMP:  58;

OLATHE - IXD   SUNNY     54  54 100 S5        30.21S
6HR MIN TEMP:  50; 6HR MAX TEMP:  57;

OLATHE - OJC   SUNNY     53  53 100 S3        30.20S
6HR MIN TEMP:  50; 6HR MAX TEMP:  59;

LAWRENCE       SUNNY     52  52 100 CALM      30.20F FOG

$$

MOZ001>008-011>017-020>025-030>033-038>040-044>046-053-054-261300-
...NORTHERN AND CENTRAL MISSOURI...

CITY           SKY/WX    TMP DP  RH WIND       PRES   REMARKS
ST. JOSEPH       N/A     56  55  97 NE5       30.22R
6HR MIN TEMP:  53; 6HR MAX TEMP:  57;

WARRENSBURG    SUNNY     52  50  93 CALM      30.21F
WHITEMAN AFB   MOSUNNY   54  54 100 S7        30.20F
6HR MIN TEMP:  50; 6HR MAX TEMP:  56;

CLINTON        SUNNY     54  54 100 SE3       30.21F
SEDALIA        SUNNY     56  55  97 S3        30.23F
6HR MIN TEMP:  53; 6HR MAX TEMP:  58;

WARSAW         NOT AVBL
CHILLICOTHE      N/A     54  52  93 NW3       30.22S
6HR MIN TEMP:  49; 6HR MAX TEMP:  54;

KIRKSVILLE     SUNNY     55  51  86 N5        30.23R
6HR MIN TEMP:  48; 6HR MAX TEMP:  55;


$$

MOZ041-047>049-056>058-063>065-088>090-097-261300-
...EASTERN AND SOUTHERN MISSOURI...

CITY           SKY/WX    TMP DP  RH WIND       PRES   REMARKS
ST. LOUIS INTL MOSUNNY   64  50  60 W7        30.22R
6HR MIN TEMP:  58; 6HR MAX TEMP:  65;

SPIRIT OF STL  SUNNY     57  54  89 CALM      30.21S
COLUMBIA       SUNNY     58  53  84 N3        30.23R
JEFFERSON CITY SUNNY     55  51  86 CALM      30.23S
ROLLA          SUNNY     58  54  86 S5        30.23S
OSAGE BEACH    CLOUDY    57  54  89 CALM      30.25S FOG
SPRINGFIELD    CLOUDY    62  58  86 S5        30.24S
BRANSON        CLOUDY    63  55  77 E6        30.27S
JOPLIN         CLOUDY    65  57  75 SE7       30.23S
WEST PLAINS    CLOUDY    63  54  72 CALM      30.27S

$$

IAZ060-094-KSZ022-034>040-054-083-096-NEZ052-066-093-261300-
...KANSAS...SOUTHEAST NEBRASKA AND IOWA...

CITY           SKY/WX    TMP DP  RH WIND       PRES   REMARKS
TOPEKA         PTCLDY    59  58  96 CALM      30.20S
6HR MIN TEMP:  53; 6HR MAX TEMP:  59;

MANHATTAN      PTCLDY    57  55  93 CALM      30.20S
EMPORIA        MOCLDY    62  57  83 S8        30.20F
CHANUTE          N/A    N/A N/A N/A MISG      30.25R
WICHITA        CLOUDY    63  55  75 E6        30.21S
OMAHA          CLOUDY    58  51  78 E8        30.18F THUNDER
LINCOLN        LGT RAIN  61  53  75 N7        30.22R
FALLS CITY     CLOUDY    57  53  86 SE3       30.21R
LAMONI         PTSUNNY   54  49  83 NE6       30.20F
DES MOINES     RAIN      56  54  93 W5        30.25R FOG

$$





USA.gov is the U.S. government's official web portal to all federal, state and local government web resources and services.